[[{"header":{"parameterUnit":"m.s-1","parameterCategory":1,"la1":30.2991,"la2":30.254,"lo1":-89.0895,"lo2":-89.0444,"dy":0.0017,"dx":0.0017,"nx":28,"ny":28,"refTime":"2023-09-14T03:00:00:Z","depth":0,"parameterNumber":2,"parameterNumberName":"U-component_of_WINDS"},"data":[0,0,0,0,0,0,0,0,0,0,0,0,0,0,0,0,0,0,0,0,0,0,0,0,0,0,0,0,0,0,0,0,0,0,0,0,0,0,0,0,0,0,0,0,0,0,0,0,0,0,0,0,0,0,0,0,0,0,-2.0896,-2.0895,0,-2.0822,-2.0821,-2.082,-2.0713,-2.0712,-2.071,-2.0708,-2.0635,-2.0635,-2.0635,0,0,0,0,0,0,0,0,0,0,0,0,0,-2.0948,-2.0948,-2.0896,-2.0895,-2.0894,-2.0822,-2.0821,-2.082,-2.0714,-2.0711,-2.0709,-2.0707,-2.0635,-2.0635,-2.0635,0,0,0,0,0,0,0,0,0,0,0,0,0,-2.0905,-2.0947,-2.0896,-2.0832,-2.0826,-2.0822,-2.0821,-2.0819,-2.0714,-2.0711,-2.0709,-2.0706,-2.0636,-2.0635,-2.0635,-2.0688,0,0,-2.0634,-2.0634,0,0,0,0,0,0,0,0,-2.0907,-2.0903,-2.0843,-2.0837,-2.0829,-2.0774,-2.0812,-2.0776,-2.0715,-2.0757,-2.0708,-2.0705,-2.0684,-2.0679,-2.0672,-2.0685,-2.0682,-2.0634,-2.0634,-2.0634,-2.0633,0,0,0,0,0,0,0,-2.0911,-2.0906,-2.0867,-2.0842,-2.0834,-2.0808,-2.0799,-2.0805,-2.0737,-2.0753,-2.0745,-2.0737,-2.068,-2.0672,-2.0669,-2.0681,-2.0634,-2.0634,-2.0633,-2.0633,-2.0732,-2.0734,0,0,0,0,0,0,-2.0923,-2.0909,-2.0869,-2.0864,-2.0862,-2.0809,-2.0799,-2.0795,-2.0736,-2.0725,-2.074,-2.0733,-2.0674,-2.067,-2.0666,-2.0723,-2.0634,-2.0633,-2.0633,-2.0729,-2.0732,-2.0735,0,0,0,0,0,0,-2.0924,-2.092,-2.0872,-2.0884,-2.0876,-2.0811,-2.0807,-2.0795,-2.0787,-2.0727,-2.0714,-2.0744,-2.0672,-2.0667,-2.0683,-2.0719,-2.0633,-2.0633,-2.0725,-2.073,-2.0734,-2.0838,0,0,0,0,0,0,-2.0926,-2.0921,-2.0941,-2.0886,-2.0876,-2.0889,-2.0809,-2.0795,-2.0786,-2.0776,-2.0728,-2.0717,-2.0669,-2.0684,-2.0683,-2.0717,-2.0633,-2.0722,-2.0727,-2.0732,-2.0831,-2.0845,-2.0857,0,0,0,0,0,-2.0928,-2.0974,-2.0942,-2.0938,-2.0899,-2.0892,-2.0886,-2.0829,-2.079,-2.0808,-2.0769,-2.0719,-2.0716,-2.0686,-2.0684,-2.0719,-2.0719,-2.0726,-2.0732,-2.0825,-2.0842,-2.0857,0,0,0,0,0,0,-2.1037,-2.0966,-2.0929,-2.0959,-2.0932,-2.0874,-2.0896,-2.085,-2.0835,-2.0826,-2.0757,-2.0747,-2.0772,-2.0747,-2.0716,-2.0766,-2.071,-2.0716,-2.0781,-2.0797,-2.081,-2.0815,-2.0632,0,0,0,0,0,-2.1064,-2.1063,-2.1002,-2.1034,-2.1022,-2.0962,-2.0957,-2.0915,-2.0885,-2.0873,-2.0835,-2.0809,-2.0801,-2.0798,-2.0788,-2.0827,-2.0814,-2.085,-2.0863,-2.0874,-2.088,-2.0897,-2.0911,-2.0756,-2.0756,-2.0756,0,0,-2.112,-2.1081,-2.1086,-2.1054,-2.1029,-2.103,-2.0953,-2.0958,-2.0958,-2.0874,-2.0886,-2.0858,-2.0823,-2.0851,-2.0861,-2.0831,-2.092,-2.0882,-2.0892,-2.0891,-2.0905,-2.0919,-2.0932,-2.076,-2.0759,-2.0759,0,0,-2.1223,-2.1194,-2.1216,-2.1191,-2.1153,-2.1112,-2.1118,-2.1066,-2.1043,-2.1054,-2.099,-2.099,-2.098,-2.0957,-2.0944,-2.1037,-2.0989,-2.1036,-2.1105,-2.1122,-2.1134,-2.1144,-2.1175,-2.1188,-2.1042,-2.1043,-2.1043,0,-2.1298,-2.1296,-2.1234,-2.1242,-2.1229,-2.1152,-2.1174,-2.1153,-2.1115,-2.1108,-2.1075,-2.1058,-2.103,-2.1049,-2.1072,-2.1065,-2.1068,-2.1041,-2.1137,-2.1147,-2.1156,-2.1185,-2.1197,-2.1048,-2.1048,-2.1047,-2.1047,0,-2.1389,-2.1389,-2.1412,-2.1374,-2.1364,-2.138,-2.132,-2.1318,-2.1277,-2.124,-2.1251,-2.1214,-2.1194,-2.1196,-2.1158,-2.121,-2.1192,-2.115,-2.1091,-2.1177,-2.1203,-2.1214,-2.1057,-2.1055,-2.1053,-2.1051,0,0,-2.1558,-2.1484,-2.1493,-2.1474,-2.1425,-2.1424,-2.1436,-2.1415,-2.1414,-2.139,-2.1397,-2.1389,-2.1348,-2.1334,-2.1292,-2.1307,-2.138,-2.1261,-2.1259,-2.1283,-2.1433,-2.1465,-2.1478,-2.1348,-2.135,-2.1352,-2.1435,0,-2.165,-2.1664,-2.1607,-2.1636,-2.1634,-2.1561,-2.157,-2.1542,-2.1507,-2.1501,-2.1464,-2.1458,-2.1406,-2.1396,-2.1408,-2.1369,-2.1409,-2.1362,-2.1354,-2.1354,-2.1362,-2.1492,-2.1526,-2.1606,-2.1445,-2.1447,-2.1448,0,-2.1759,-2.1738,-2.1766,-2.1714,-2.1711,-2.1721,-2.1696,-2.1691,-2.1657,-2.1631,-2.1614,-2.1565,-2.1572,-2.1517,-2.1526,-2.1495,-2.1488,-2.1468,-2.147,-2.1466,-2.1405,-2.149,-2.1631,-2.1643,-2.1464,-2.1463,-2.1462,0,-2.1876,-2.1856,-2.1869,-2.1855,-2.1795,-2.1803,-2.1779,-2.1742,-2.1732,-2.1712,-2.1704,-2.1686,-2.1675,-2.1661,-2.1608,-2.1573,-2.1622,-2.1563,-2.16,-2.1601,-2.1612,-2.1612,-2.1753,-2.1612,-2.1612,-2.1611,-2.1611,0,-2.1984,-2.2003,-2.1921,-2.1929,-2.1948,-2.1884,-2.1905,-2.1873,-2.1841,-2.1841,-2.1778,-2.178,-2.171,-2.1704,-2.1663,-2.1675,-2.1672,-2.165,-2.1639,-2.1655,-2.1657,-2.1648,-2.164,-2.1615,-2.1614,-2.1613,-2.1613,0,-2.2118,-2.2063,-2.2073,-2.2015,-2.2,-2.2017,-2.1967,-2.1972,-2.1934,-2.1935,-2.1932,-2.1872,-2.1861,-2.1807,-2.1785,-2.1757,-2.1783,-2.1762,-2.1794,-2.1786,-2.1825,-2.1822,-2.1964,-2.1978,-2.183,-2.1832,-2.1833,0,-2.2189,-2.2202,-2.2144,-2.2139,-2.2117,-2.2111,-2.21,-2.2037,-2.2029,-2.1989,-2.1999,-2.1984,-2.1968,-2.1955,-2.1909,-2.1892,-2.1868,-2.1919,-2.1865,-2.188,-2.1866,-2.1865,-2.1865,-2.193,-2.1932,-2.1933,-2.1935,0,-2.232,-2.2292,-2.2278,-2.2255,-2.2244,-2.2223,-2.2198,-2.2199,-2.2128,-2.2122,-2.211,-2.2098,-2.2074,-2.2059,-2.2033,-2.2008,-2.196,-2.1952,-2.1959,-2.1975,-2.1992,-2.1981,-2.1824,-2.1949,-2.1947,-2.1946,-2.1946,-2.1945,-2.2423,-2.243,-2.239,-2.2377,-2.2351,-2.2329,-2.233,-2.2291,-2.228,-2.2254,-2.2218,-2.2211,-2.2174,-2.2134,-2.2113,-2.2106,-2.2079,-2.209,-2.2092,-2.2096,-2.2103,-2.1995,-2.2102,-2.2102,-2.2101,-2.2101,-2.21,0,-2.2549,-2.2519,-2.2508,-2.2474,-2.2463,-2.2418,-2.2388,-2.2382,-2.2376,-2.2346,-2.2331,-2.2316,-2.2301,-2.2254,-2.2233,-2.2237,-2.2214,-2.2233,-2.2231,-2.2226,-2.213,-2.2125,-2.2252,-2.2252,-2.2252,-2.2252,-2.2252,-2.2252,-2.2613,-2.2622,-2.2589,-2.2585,-2.2555,-2.2546,-2.2532,-2.2511,-2.2487,-2.2473,-2.2459,-2.2428,-2.2391,-2.2367,-2.235,-2.2337,-2.2331,-2.2358,-2.2337,-2.2248,-2.2233,-2.2219,-2.2214,-2.2358,-2.2358,-2.2433,-2.2434,-2.2435]},{"header":{"parameterUnit":"m.s-1","parameterCategory":1,"la1":30.2991,"la2":30.254,"lo1":-89.0895,"lo2":-89.0444,"dy":0.0017,"dx":0.0017,"nx":28,"ny":28,"refTime":"2023-09-14T03:00:00:Z","depth":0,"parameterNumber":3,"parameterNumberName":"V-component_of_WINDS"},"data":[0,0,0,0,0,0,0,0,0,0,0,0,0,0,0,0,0,0,0,0,0,0,0,0,0,0,0,0,0,0,0,0,0,0,0,0,0,0,0,0,0,0,0,0,0,0,0,0,0,0,0,0,0,0,0,0,0,0,-2.2715,-2.2716,0,-2.2841,-2.2842,-2.2844,-2.2892,-2.2891,-2.2891,-2.2891,-2.3017,-2.302,-2.3024,0,0,0,0,0,0,0,0,0,0,0,0,0,-2.2512,-2.2515,-2.2715,-2.2716,-2.2718,-2.2841,-2.2843,-2.2844,-2.2892,-2.2891,-2.2891,-2.289,-2.3015,-2.302,-2.3024,0,0,0,0,0,0,0,0,0,0,0,0,0,-2.2615,-2.2516,-2.2715,-2.2757,-2.2762,-2.284,-2.2843,-2.2845,-2.2892,-2.2891,-2.2891,-2.289,-2.3014,-2.3019,-2.3025,-2.307,0,0,-2.3042,-2.3044,0,0,0,0,0,0,0,0,-2.2609,-2.2622,-2.2749,-2.2754,-2.276,-2.285,-2.2817,-2.292,-2.2892,-2.2842,-2.2891,-2.289,-2.2961,-2.2971,-2.2996,-2.3076,-2.3081,-2.3042,-2.3046,-2.3048,-2.3049,0,0,0,0,0,0,0,-2.2602,-2.2617,-2.2765,-2.2751,-2.2757,-2.2768,-2.2782,-2.2837,-2.2903,-2.2847,-2.285,-2.2865,-2.2964,-2.2991,-2.2999,-2.3083,-2.3042,-2.3047,-2.305,-2.3053,-2.3205,-2.3206,0,0,0,0,0,0,-2.2588,-2.2611,-2.2761,-2.2768,-2.2682,-2.2772,-2.2788,-2.2822,-2.2903,-2.2915,-2.2865,-2.2867,-2.2981,-2.2993,-2.3004,-2.3062,-2.3048,-2.3053,-2.3056,-2.3205,-2.3205,-2.3206,0,0,0,0,0,0,-2.2584,-2.2601,-2.2756,-2.2691,-2.2711,-2.2776,-2.2814,-2.2824,-2.2851,-2.2917,-2.2929,-2.288,-2.2981,-2.2996,-2.3053,-2.3067,-2.3056,-2.3061,-2.3204,-2.3205,-2.3206,-2.3178,0,0,0,0,0,0,-2.2578,-2.2599,-2.2618,-2.2691,-2.2715,-2.2804,-2.2815,-2.2827,-2.2861,-2.2864,-2.2934,-2.2945,-2.2982,-2.3045,-2.3059,-2.3074,-2.3065,-2.3203,-2.3204,-2.3205,-2.3178,-2.3178,-2.3178,0,0,0,0,0,-2.257,-2.2605,-2.2619,-2.2636,-2.274,-2.2805,-2.2818,-2.2861,-2.2862,-2.288,-2.2923,-2.2943,-2.3063,-2.305,-2.3066,-2.3084,-2.3202,-2.3204,-2.3205,-2.3178,-2.3178,-2.3178,0,0,0,0,0,0,-2.2531,-2.2615,-2.2632,-2.2691,-2.274,-2.2813,-2.2838,-2.2859,-2.2909,-2.291,-2.2959,-2.2975,-2.3028,-2.3061,-2.3046,-2.3131,-2.3134,-2.3139,-2.3107,-2.3108,-2.3108,-2.3098,-2.307,0,0,0,0,0,-2.2529,-2.2576,-2.2646,-2.2692,-2.2716,-2.2772,-2.2802,-2.2831,-2.2884,-2.2904,-2.2951,-2.3,-2.3049,-2.308,-2.3129,-2.3183,-2.3198,-2.3202,-2.3202,-2.3202,-2.3206,-2.3236,-2.3238,-2.3212,-2.3212,-2.3212,0,0,-2.2526,-2.2577,-2.2604,-2.2685,-2.2727,-2.2773,-2.279,-2.2838,-2.2872,-2.2911,-2.2968,-2.3004,-2.3062,-2.3118,-2.3144,-2.3148,-2.3216,-2.3204,-2.3203,-2.3207,-2.3237,-2.324,-2.3242,-2.3213,-2.3213,-2.3212,0,0,-2.2543,-2.2587,-2.263,-2.2671,-2.2734,-2.2772,-2.2782,-2.2851,-2.2876,-2.2934,-2.2965,-2.3005,-2.3089,-2.3129,-2.316,-2.3192,-2.3212,-2.3206,-2.3206,-2.3235,-2.3237,-2.3239,-2.3249,-2.3253,-2.321,-2.321,-2.321,0,-2.2531,-2.2603,-2.2648,-2.2695,-2.2729,-2.2768,-2.281,-2.2848,-2.2923,-2.2945,-2.2948,-2.3053,-2.3095,-2.316,-2.3168,-2.3192,-2.3204,-2.3198,-2.3233,-2.3235,-2.3238,-2.3249,-2.3253,-2.3208,-2.3209,-2.3209,-2.3209,0,-2.2584,-2.2633,-2.2659,-2.2732,-2.2769,-2.2813,-2.2865,-2.2897,-2.2922,-2.2958,-2.3016,-2.3068,-2.3127,-2.3145,-2.3169,-2.3213,-2.3213,-2.3223,-2.3227,-2.3239,-2.3249,-2.3254,-2.3207,-2.3207,-2.3208,-2.3208,0,0,-2.258,-2.2677,-2.2686,-2.2719,-2.2791,-2.283,-2.2875,-2.2934,-2.296,-2.301,-2.3049,-2.3118,-2.3128,-2.3164,-2.3193,-2.3218,-2.3239,-2.3226,-2.3228,-2.3226,-2.3289,-2.328,-2.3284,-2.3253,-2.3254,-2.3255,-2.3284,0,-2.2607,-2.2691,-2.2733,-2.2798,-2.2843,-2.288,-2.2919,-2.2967,-2.3002,-2.3045,-2.3083,-2.3131,-2.3142,-2.3163,-2.319,-2.3231,-2.3252,-2.3229,-2.3288,-2.3289,-2.3272,-2.329,-2.3281,-2.3306,-2.3288,-2.3289,-2.329,0,-2.2649,-2.27,-2.277,-2.2836,-2.2856,-2.2891,-2.2948,-2.2989,-2.3043,-2.3067,-2.3106,-2.3135,-2.3183,-2.3183,-2.3249,-2.3232,-2.3258,-2.3282,-2.3284,-2.3291,-2.329,-2.3296,-2.3315,-2.3319,-2.3297,-2.3296,-2.3296,0,-2.2638,-2.2724,-2.2777,-2.2804,-2.2883,-2.2906,-2.294,-2.2994,-2.3026,-2.3076,-2.3097,-2.3151,-2.318,-2.3221,-2.3263,-2.3259,-2.3324,-2.3328,-2.3344,-2.3343,-2.3356,-2.3354,-2.3378,-2.3373,-2.3373,-2.3373,-2.3373,0,-2.2663,-2.2704,-2.2773,-2.2805,-2.2852,-2.29,-2.2944,-2.298,-2.3028,-2.3067,-2.3102,-2.3138,-2.3191,-2.3233,-2.3266,-2.3315,-2.3328,-2.3348,-2.3356,-2.3345,-2.3342,-2.3362,-2.3361,-2.3374,-2.3374,-2.3374,-2.3374,0,-2.2659,-2.2707,-2.2767,-2.2837,-2.2855,-2.2886,-2.2945,-2.2978,-2.3014,-2.3063,-2.3077,-2.3134,-2.3186,-2.3232,-2.3299,-2.3322,-2.3371,-2.3382,-2.3353,-2.3357,-2.3371,-2.3369,-2.3408,-2.3416,-2.3406,-2.3406,-2.3406,0,-2.2672,-2.2704,-2.2778,-2.2807,-2.284,-2.2887,-2.292,-2.2968,-2.3001,-2.3065,-2.3089,-2.3143,-2.3189,-2.3268,-2.3315,-2.3367,-2.3379,-2.3389,-2.3387,-2.3374,-2.3378,-2.3376,-2.3379,-2.3388,-2.3388,-2.3388,-2.3388,0,-2.2689,-2.2711,-2.2758,-2.2814,-2.2853,-2.2899,-2.2946,-2.2967,-2.3023,-2.3059,-2.3112,-2.3147,-2.3217,-2.3269,-2.3326,-2.336,-2.3383,-2.3388,-2.3395,-2.3383,-2.3365,-2.3375,-2.3352,-2.3387,-2.3387,-2.3387,-2.3387,-2.3388,-2.2693,-2.2724,-2.278,-2.2831,-2.2872,-2.2914,-2.2948,-2.2989,-2.3035,-2.3096,-2.312,-2.3174,-2.3227,-2.3306,-2.3339,-2.3381,-2.3385,-2.3395,-2.3397,-2.3398,-2.3396,-2.3359,-2.3391,-2.3392,-2.3392,-2.3392,-2.3392,0,-2.2712,-2.275,-2.2797,-2.2861,-2.2901,-2.2921,-2.2973,-2.3005,-2.3052,-2.31,-2.3144,-2.3205,-2.3256,-2.3307,-2.3361,-2.3384,-2.3396,-2.3397,-2.3395,-2.3402,-2.3389,-2.3378,-2.3386,-2.3386,-2.3386,-2.3386,-2.3386,-2.3386,-2.2726,-2.2778,-2.2807,-2.2879,-2.2916,-2.297,-2.2998,-2.3037,-2.3076,-2.3142,-2.3185,-2.3218,-2.3267,-2.3324,-2.3372,-2.3385,-2.3403,-2.34,-2.3416,-2.3403,-2.3403,-2.3403,-2.3393,-2.3404,-2.3404,-2.3426,-2.3426,-2.3426]}]]